Tracking 18710 objects as of 29-June-2017
HD Live streaming from Space Station
objects crossing your sky now

DTUSAT

Track DTUSAT now!
10-day predictions
DTUSAT is classified as:


NORAD ID: 27842
Int'l Code: 2003-031C
Perigee: 819.4 km
Apogee: 831.3 km
Inclination: 98.7 °
Period: 101.3 minutes
Semi major axis: 7196 km
RCS: 0.0583 m2 (small)
Launch date: June 30, 2003
Source: Denmark (DEN)
Launch site: PLESETSK MISSILE AND SPACE COMPLEX (PKMTR)
Uplink (MHz):
Downlink (MHz):
Beacon (MHz): 437.475
Mode: 2400bps AFSK CW
Call sign: OZ2DTU
Status: Inactive

Your satellite tracking list
Your tracking list is empty





NASA's NSSDC Master Catalog

Two Line Element Set (TLE):
1 27842U 03031C   17174.93116053 +.00000028 +00000-0 +32477-4 0  9995
2 27842 098.6820 182.6315 0008233 306.7472 053.2949 14.22107819725404
Source of the keplerian elements: AFSPC